When you browse on this site, cookies collect data to enhance your experience and personalize the content and advertising you see.
Visit our Privacy Policy to learn more. By continuing to use the site, you agree to this use of cookies and data.
  • In Czech Republic
  • List of Countries
  • For 7 days
  • Water Temperature
  • Weather Map
  • Weather Widgets
  • user-avatar
    Login

    Hourly Weather Maripasoula

    Today, 19 October, Saturday

    Time Temperature Precipitation Wind Pressure Humidity
    00:00 +24°C° 0 mm 1 mps 746 mmHg 97%
    01:00 +24°C° 0 mm 1 mps 746 mmHg 98%
    02:00 +24°C° 0 mm 1 mps 746 mmHg 98%
    03:00 +24°C° 0 mm 1 mps 746 mmHg 99%
    04:00 +24°C° 0 mm 1 mps 746 mmHg 99%
    05:00 +21°C° 0 mm 0 mps 746 mmHg 99%
    06:00 +25°C° 0 mm 1 mps 746 mmHg 93%
    07:00 +27°C° 0 mm 1 mps 747 mmHg 86%
    08:00 +28°C° 0 mm 2 mps 748 mmHg 80%
    09:00 +31°C° 0 mm 2 mps 747 mmHg 66%
    10:00 +34°C° 0 mm 2 mps 747 mmHg 53%
    11:00 +37°C° 0 mm 2 mps 747 mmHg 40%
    12:00 +38°C° 0 mm 2 mps 746 mmHg 36%
    13:00 +39°C° 0 mm 2 mps 744 mmHg 33%
    14:00 +40°C° 0 mm 2 mps 743 mmHg 29%
    15:00 +37°C° 0 mm 1 mps 743 mmHg 35%
    16:00 +35°C° 0 mm 1 mps 744 mmHg 41%
    17:00 +33°C° 0 mm 1 mps 744 mmHg 46%
    18:00 +30°C° 1 mm 1 mps 744 mmHg 62%
    19:00 +28°C° 1 mm 1 mps 745 mmHg 78%
    20:00 +25°C° 1 mm 1 mps 745 mmHg 93%
    21:00 +25°C° 0.2 mm 1 mps 746 mmHg 94%
    22:00 +24°C° 0.2 mm 1 mps 746 mmHg 96%
    23:00 +24°C° 0.2 mm 1 mps 746 mmHg 97%

    Tomorrow, 20 October, Sunday

    Time Temperature Precipitation Wind Pressure Humidity
    00:00 +24°C° 0 mm 1 mps 745 mmHg 97%
    01:00 +24°C° 0 mm 1 mps 745 mmHg 98%
    02:00 +24°C° 0 mm 1 mps 745 mmHg 99%
    03:00 +23°C° 0 mm 1 mps 745 mmHg 99%
    04:00 +21°C° 0 mm 0 mps 745 mmHg 99%
    05:00 +21°C° 0 mm 0 mps 745 mmHg 99%
    06:00 +24°C° 0 mm 1 mps 746 mmHg 95%
    07:00 +26°C° 0 mm 1 mps 747 mmHg 92%
    08:00 +27°C° 0 mm 1 mps 747 mmHg 88%
    09:00 +30°C° 0 mm 1 mps 747 mmHg 74%
    10:00 +32°C° 0 mm 1 mps 746 mmHg 61%
    11:00 +35°C° 0 mm 1 mps 746 mmHg 48%
    12:00 +36°C° 0 mm 1 mps 745 mmHg 44%
    13:00 +36°C° 0 mm 1 mps 744 mmHg 40%
    14:00 +37°C° 0 mm 1 mps 743 mmHg 36%
    15:00 +35°C° 0 mm 1 mps 743 mmHg 42%
    16:00 +34°C° 0 mm 1 mps 743 mmHg 47%
    17:00 +32°C° 0 mm 1 mps 744 mmHg 53%
    18:00 +30°C° 0.2 mm 1 mps 744 mmHg 62%
    19:00 +28°C° 0.2 mm 1 mps 745 mmHg 71%
    20:00 +26°C° 0.2 mm 1 mps 745 mmHg 81%
    21:00 +26°C° 0 mm 1 mps 745 mmHg 85%
    22:00 +25°C° 0 mm 1 mps 745 mmHg 90%
    23:00 +25°C° 0 mm 1 mps 745 mmHg 94%

    Day after tomorrow, 21 October, Monday

    Time Temperature Precipitation Wind Pressure Humidity
    00:00 +24°C° 0 mm 1 mps 745 mmHg 96%
    01:00 +22°C° 0 mm 0 mps 744 mmHg 97%
    02:00 +21°C° 0 mm 0 mps 744 mmHg 99%
    03:00 +22°C° 0 mm 0 mps 744 mmHg 99%
    04:00 +22°C° 0 mm 0 mps 745 mmHg 99%
    05:00 +22°C° 0 mm 0 mps 745 mmHg 99%
    06:00 +23°C° 0 mm 0 mps 745 mmHg 92%
    07:00 +27°C° 0 mm 1 mps 746 mmHg 86%
    08:00 +28°C° 0 mm 1 mps 746 mmHg 80%
    09:00 +31°C° 0 mm 1 mps 746 mmHg 67%
    10:00 +34°C° 0 mm 1 mps 746 mmHg 54%
    11:00 +37°C° 0 mm 1 mps 745 mmHg 40%
    12:00 +36°C° 0 mm 1 mps 744 mmHg 43%
    13:00 +36°C° 0 mm 1 mps 743 mmHg 45%
    14:00 +35°C° 0 mm 1 mps 743 mmHg 47%
    15:00 +34°C° 0 mm 1 mps 743 mmHg 50%
    16:00 +31°C° 0 mm 0 mps 743 mmHg 54%
    17:00 +30°C° 0 mm 0 mps 743 mmHg 57%
    18:00 +28°C° 1.2 mm 0 mps 744 mmHg 70%
    19:00 +27°C° 1.2 mm 1 mps 744 mmHg 83%
    20:00 +25°C° 1.2 mm 1 mps 744 mmHg 96%
    21:00 +25°C° 0.3 mm 1 mps 745 mmHg 97%
    22:00 +24°C° 0.3 mm 1 mps 745 mmHg 98%
    23:00 +22°C° 0.3 mm 0 mps 745 mmHg 99%

    22 October, Tuesday

    Time Temperature Precipitation Wind Pressure Humidity
    00:00 +22°C° 0 mm 0 mps 744 mmHg 99%
    01:00 +22°C° 0 mm 0 mps 744 mmHg 99%
    02:00 +22°C° 0 mm 0 mps 744 mmHg 99%
    03:00 +22°C° 0 mm 0 mps 744 mmHg 99%
    04:00 +22°C° 0 mm 0 mps 744 mmHg 99%
    05:00 +22°C° 0 mm 0 mps 745 mmHg 99%
    06:00 +23°C° 0 mm 0 mps 745 mmHg 95%
    07:00 +26°C° 0 mm 1 mps 746 mmHg 90%
    08:00 +28°C° 0 mm 1 mps 746 mmHg 86%
    09:00 +30°C° 0 mm 1 mps 746 mmHg 73%
    10:00 +32°C° 0 mm 1 mps 746 mmHg 60%
    11:00 +35°C° 0 mm 1 mps 746 mmHg 47%
    12:00 +35°C° 0 mm 1 mps 745 mmHg 44%
    13:00 +36°C° 0 mm 1 mps 744 mmHg 41%
    14:00 +36°C° 0 mm 1 mps 742 mmHg 39%
    15:00 +33°C° 0 mm 0 mps 743 mmHg 44%
    16:00 +31°C° 0 mm 0 mps 743 mmHg 48%
    17:00 +30°C° 0 mm 0 mps 743 mmHg 53%
    18:00 +31°C° 0 mm 1 mps 743 mmHg 59%
    19:00 +30°C° 0 mm 1 mps 743 mmHg 64%
    20:00 +28°C° 0 mm 1 mps 743 mmHg 69%
    21:00 +27°C° 0 mm 1 mps 744 mmHg 75%
    22:00 +26°C° 0 mm 1 mps 744 mmHg 82%
    23:00 +25°C° 0 mm 1 mps 744 mmHg 88%

    23 October, Wednesday

    Time Temperature Precipitation Wind Pressure Humidity
    00:00 +25°C° 0 mm 1 mps 744 mmHg 91%
    01:00 +24°C° 0 mm 1 mps 744 mmHg 94%
    02:00 +22°C° 0 mm 0 mps 744 mmHg 98%
    03:00 +22°C° 0 mm 0 mps 744 mmHg 98%
    04:00 +21°C° 0 mm 0 mps 744 mmHg 98%
    05:00 +21°C° 0 mm 0 mps 745 mmHg 98%
    06:00 +25°C° 0 mm 1 mps 745 mmHg 91%
    07:00 +26°C° 0 mm 1 mps 745 mmHg 84%
    08:00 +28°C° 0 mm 1 mps 746 mmHg 77%
    09:00 +31°C° 0 mm 1 mps 746 mmHg 64%
    10:00 +34°C° 0 mm 2 mps 745 mmHg 50%
    11:00 +37°C° 0 mm 2 mps 745 mmHg 37%
    12:00 +38°C° 0 mm 2 mps 744 mmHg 34%
    13:00 +39°C° 0 mm 2 mps 743 mmHg 31%
    14:00 +39°C° 0 mm 2 mps 742 mmHg 28%
    15:00 +37°C° 0 mm 2 mps 742 mmHg 34%
    16:00 +35°C° 0 mm 1 mps 742 mmHg 40%
    17:00 +33°C° 0 mm 1 mps 742 mmHg 46%
    18:00 +31°C° 0.1 mm 1 mps 743 mmHg 56%
    19:00 +29°C° 0.1 mm 1 mps 743 mmHg 66%
    20:00 +27°C° 0.1 mm 2 mps 744 mmHg 76%
    21:00 +27°C° 0 mm 2 mps 744 mmHg 78%
    22:00 +26°C° 0 mm 2 mps 744 mmHg 80%
    23:00 +26°C° 0 mm 2 mps 745 mmHg 82%

    24 October, Thursday

    Time Temperature Precipitation Wind Pressure Humidity
    00:00 +25°C° 0 mm 1 mps 744 mmHg 86%
    01:00 +24°C° 0 mm 1 mps 744 mmHg 91%
    02:00 +21°C° 0 mm 0 mps 744 mmHg 95%
    03:00 +21°C° 0 mm 0 mps 744 mmHg 96%
    04:00 +21°C° 0 mm 0 mps 744 mmHg 97%
    05:00 +20°C° 0 mm 0 mps 744 mmHg 99%
    06:00 +23°C° 0 mm 0 mps 745 mmHg 87%
    07:00 +27°C° 0 mm 1 mps 746 mmHg 76%
    08:00 +30°C° 0 mm 1 mps 746 mmHg 65%
    09:00 +32°C° 0 mm 1 mps 746 mmHg 55%
    10:00 +35°C° 0 mm 1 mps 745 mmHg 46%
    11:00 +38°C° 0 mm 2 mps 745 mmHg 36%
    12:00 +37°C° 0 mm 1 mps 744 mmHg 35%
    13:00 +37°C° 0 mm 1 mps 743 mmHg 34%
    14:00 +37°C° 0 mm 1 mps 742 mmHg 34%
    15:00 +36°C° 0 mm 1 mps 742 mmHg 39%
    16:00 +34°C° 0 mm 1 mps 742 mmHg 44%
    17:00 +32°C° 0 mm 1 mps 742 mmHg 50%
    18:00 +31°C° 0.1 mm 1 mps 743 mmHg 56%
    19:00 +29°C° 0.1 mm 1 mps 743 mmHg 63%
    20:00 +28°C° 0.1 mm 1 mps 744 mmHg 69%
    21:00 +27°C° 0.3 mm 1 mps 744 mmHg 79%
    22:00 +25°C° 0.3 mm 1 mps 744 mmHg 88%
    23:00 +24°C° 0.3 mm 1 mps 744 mmHg 97%
    Show more